TIMESTAMP,CO2_1_1_1,H2O_1_1_1,TAU_1_1_1,TAU_SSITC_TEST_1_1_1,H_1_1_1,H_SSITC_TEST_1_1_1,LE_1_1_1,LE_SSITC_TEST_1_1_1,FC_1_1_1,FC_SSITC_TEST_1_1_1,WD_0_0_1,WS_0_0_1,WS_MAX_0_0_1,U_SIGMA_0_0_1,V_SIGMA_0_0_1,W_SIGMA_0_0_1,USTAR_0_0_1,MO_LENGTH_0_0_1,ZL_0_0_1,FETCH_MAX_0_0_1,FETCH_70_0_0_1,FETCH_80_0_0_1,FETCH_90_0_0_1,PA_0_0_1,RH_0_0_1,TA_0_0_1,VPD_0_0_1,T_SONIC_0_0_1,T_SONIC_SIGMA_0_0_1
[yyyymmddHHMMSS],[mmolCO2 mol-1],[mmolH2O mol-1],[kg m-1 s-2],[#],[W m-2],[#],[W m-2],[#],[umolCO2 m-2 s-1],[#],[Decimal degrees],[m s-1],[m s-1],[m s-1],[m s-1],[m s-1],[m s-1],[m],[#],[m],[m],[m],[m],[kPa],[%],[deg C],[hPa],[deg C],[deg C]
20240511003000,425.14391677825944,10.612784153157142,0.42482806887430191,0,12.638978068470530,2,30.008215191340835,1,-0.36056750693239481,2,285.76119445961740,2.8063175314078852,11.072404411091933,1.8351183463973610,1.2858554104030837,0.68055528378476093,0.60727306934620240,-1472.8273992267334,-1.2900357509627683E-002,114.30662163379115,208.98896057370979,250.10640928141882,313.10354571415007,93.473149261547519,90.290000000000006,8.3983333333333121,1.0671175505083750,8.7994547301104831,0.42265004358740288
20240511010000,426.51002115058276,9.7080127375458716,0.84006220415030286,0,15.219776447306948,2,46.024255535780597,1,3.6616970345404223,0,270.37043135474903,4.3682693218696125,13.021636001838957,1.7938293499738529,1.3036301675868229,0.97954392151027825,0.85197594309811953,-3377.4866474874511,-5.6254848599133047E-003,111.98958471466476,204.75267810452348,245.03666112744247,306.75682262357276,93.498211213541666,89.226666666666659,7.2686666666666611,1.0962397542788733,7.5970082719589982,0.37478066646491404
20240511013000,426.47448163663620,9.2422664331294921,0.83625852572040993,0,-11.870418933515857,1,-2.6637621770171354,2,3.4438553320830079,0,268.02384710986615,4.1218489025965024,11.538946797309789,1.7765835316803742,1.3704690691572035,0.95768342489862124,0.84813476704565050,4272.7413656366771,4.4467938435980734E-003,113.61854309724346,207.73093355750694,248.60087224760727,311.21879200134151,93.528413101128479,91.773333333333326,6.1493333333333453,0.77507891661399753,6.3454997609455859,0.19507195678164024
20240511020000,425.95004853736265,8.5805188077313890,0.83749920262392952,0,-22.722941967781619,1,-4.4844090808634904,2,3.7953207739364165,0,267.74287059439297,4.2742463429249069,10.531295036286938,1.7911777114871421,1.2914781270373323,0.96441069460136808,0.84734096078115195,2225.8966608777109,8.5358859348429773E-003,112.89945522361623,206.41621158320194,247.02748582904172,309.24909891012192,93.549795624435603,90.093333333333334,5.3473333333333244,0.88289237223685524,5.5871282358638155,0.37033777034907739
20240511023000,424.68213162106741,8.0323854177447096,0.59864289218906830,0,-8.7532861361676808,2,-2.2214798564143177,2,2.6111371747341807,0,290.04227811064789,4.0440610273143323,8.6236857458816676,1.5356330763817743,1.2848805310365574,0.88447987123589877,0.71493735632537536,3471.3477412911457,5.4733784731497599E-003,105.61337684448425,193.09493653063552,231.08532189224161,289.29140142724015,93.585018994357640,90.260000000000005,4.3806666666666843,0.81139248094625260,4.6620746773614314,0.22961697009144141
20240511030000,424.72751839397182,8.0732676526938132,0.35407730450363628,0,-12.732048130592508,0,2.3870141019470479,0,1.6800976235442289,0,296.24285530952710,2.6008350537097749,7.5191476483055704,1.2280185585251879,0.90310530554782098,0.61360540941596875,0.54934214768775858,1082.9011815714505,1.7545460586189571E-002,114.60878091257436,209.54140410408471,250.76754309123118,313.93120679104328,93.613019059027778,93.459999999999994,3.9610000000000127,0.52899802843033628,4.3091083238389842,8.8244236964246089E-002
20240511033000,424.99616508235681,8.1625737439771964,0.21020766330695398,0,-14.065153386670579,0,1.1510613633737978,0,2.2088541939825070,0,312.44399080259569,2.5450637752183556,6.2720722888565739,0.93667692838767980,0.82089188299430904,0.62311766048101203,0.42319713832349176,448.19148442207080,4.2392594818038365E-002,91.882547856937634,167.99060191810395,201.04184509756658,251.68053356895533,93.617734772352435,95.109999999999999,3.8693333333333157,0.39299262747041325,4.1442276713053161,9.3425454092366342E-002
20240511040000,424.89271804077953,8.1983086809276404,0.24263156191285942,0,-2.5789189313742291,2,2.3984040780295879,1,1.6464296006211685,0,301.11772244499491,2.8642948102410961,6.6397758941745142,1.0291960054598694,0.96624527894738887,0.64909656384530934,0.45462558897707300,3030.3737375048077,6.2698537031424025E-003,94.173899344559587,172.17992322655186,206.05539273618692,257.95690028330273,93.614751816406255,95.936666666666667,3.8079999999999927,0.32514932886802855,4.1664827117919572,0.18462171693311072
20240511043000,425.18555141894035,8.2343333917447410,7.9857747905808851E-002,1,-5.3409893782877651,1,0.54174203622335493,2,0.96410351847760190,1,304.31063599001573,2.6748791315865170,6.0905672139913900,0.87395557121246947,0.70839449344008187,0.50566330327773934,0.26080164929527283,276.23428860816881,6.8782192448783974E-002,73.724870218289951,134.79257610039690,161.31228708787404,201.94384142167851,93.612848457682304,96.666666666666671,3.7623333333333449,0.26587799084880542,4.1362464370727139,0.14903950751581546
20240511050000,425.40885706017320,8.2067951252502240,0.19283152396683240,0,-2.1611366285253433,1,2.5760459590880269,1,1.9345556922192531,0,278.81144817482533,2.6848807384989448,5.6160157549247298,0.85707580165399544,0.86449069474968399,0.52198816838122342,0.40520337219666419,2560.3001335936701,7.4210049637154669E-003,102.25035235270830,186.94625517801987,223.72692070829044,280.07955632458254,93.609303608461403,96.980000000000004,3.6683333333333508,0.23929512364801439,3.8431971353655854,0.10543837187848976
20240511053000,424.78886764327063,8.0787372799713815,0.22273575248682681,0,-17.929401972381243,0,-2.6698627944581372,2,2.2580993460294256,0,274.75886557696754,2.9414730557363904,5.9470923426524847,0.85875295621902747,0.69000104657158801,0.51581319432963268,0.43545772142005146,382.99082402596235,4.9609543644607054E-002,109.34973597418494,199.92619267035332,239.26059076432097,299.52586794238812,93.600835563585079,95.819999999999993,3.6146666666666647,0.32995886824634568,3.7804776340061039,0.12008653434996182
20240511060000,424.90013005091498,8.2509303367307734,0.19068758085776097,0,-5.9760406025238444,0,-0.46997468135437892,1,1.6655648303188235,0,285.45123219891366,2.5036655345452945,5.6092873624671693,0.89075759670017862,0.66593464993251283,0.51985896700381151,0.40311641360263112,911.59295371488327,2.0842635874456950E-002,102.16234511157400,186.78534987275643,223.53435815367845,279.83849085651235,93.598623490668402,96.126666666666665,3.8683333333333394,0.31126468647891214,4.0813695051405148,0.18013794915763803
20240511063000,425.30395500803888,8.4460718113861795,0.17532415947325039,0,0.28735769096135483,2,0.94105354136499486,2,2.1148068037777166,0,290.22254971479117,2.5272077207195536,5.6722568596687450,0.93013812706863908,0.70950303606592879,0.49428089768594419,0.38680729333474118,-16748.556405663741,-1.1344261284259045E-003,102.91331358767680,188.15835975618344,225.17750031252334,281.89550985704443,93.591586667534727,96.019999999999996,4.2156666666666638,0.32773998486370487,4.5555720884535731,0.21416309798372951
20240511070000,425.72654012925796,8.4746110102365915,0.26506050167161199,0,-6.2015032439696105,0,-1.2538184207868421,1,2.8109164743954644,0,280.53782107445659,2.6173207763443140,6.3329577451533670,0.95509757860859146,0.72248768891229598,0.59981015662313752,0.47566543356830582,1443.1366889226331,1.3165766033004372E-002,104.01240096576187,190.16784201926330,227.58233735249866,284.90608046274917,93.585854671440970,95.996666666666670,4.2663333333333640,0.33083546781072415,4.6730702285767052,9.3082114530163879E-002
20240511073000,425.59365173206413,8.5446980726928459,9.3084706774833367E-002,0,-7.4518137697363800,0,0.32918388607234772,1,1.8288238266611281,0,290.18724579419529,2.2977002030505700,5.9932286740536540,0.83066690236359564,0.67662241413966717,0.47912884484789037,0.28193727041196504,250.06055260450773,7.5981596465757376E-002,81.924733737782446,149.78454182636514,179.25384106038422,224.40453797301669,93.569130102864591,96.430000000000007,4.3170000000000073,0.29607507098016866,4.8339826058282256,0.10188518176317743
20240511080000,425.72971642171439,8.6952089086477375,0.12674304387340041,0,1.9524532258525686,1,3.1116938592616958,1,1.5538584441307741,0,284.53983619392397,2.2623472952767307,4.9808240836058326,0.76828050871042641,0.60236149919518300,0.45633805746800737,0.32910255866575699,-1517.9459048254607,-1.2516915088739406E-002,96.403001393281002,176.25543270724935,210.93273668493640,264.06275614044955,93.563496188177282,96.983333333333334,4.4836666666666929,0.25312390357266623,5.0143609795513839,9.6063997002126797E-002
20240511083000,425.91123135271295,8.9292567111502112,0.26975117007969607,0,-7.5661719038916280,0,0.99001739252836052,2,2.8697220856427039,0,300.56704840463073,2.0247822942317248,5.8958404225762919,0.98378856374241785,0.71439298500795834,0.50753663963886919,0.48039264814453425,1218.5283750914123,1.5592579039100872E-002,119.82793131106345,219.08367559516736,262.18720493591218,328.22726831421295,93.581662713758675,97.250000000000000,4.8269999999999982,0.23635545452043402,5.3864515033298517,0.11348198658023283
20240511090000,426.39071552214148,9.0262662404310472,0.23387948109497772,1,1.8290177386051560E-002,2,0.94175082002576982,1,1.9273855321232802,0,293.06247030416137,1.6471418379643812,5.4105152913652095,0.77423862114301467,0.63796575909047781,0.54646979851447897,0.44736672448773662,-407164.36374643538,-4.6664201712486780E-005,106.69225886820342,195.06747696176726,233.44594899445059,292.24662643700344,93.601565148437501,97.530000000000001,4.9436666666666724,0.21402596236709315,5.4897242431640620,5.8988760126759000E-002
20240511093000,426.34764569889359,9.0243129925722592,9.2139346254344376E-002,0,4.7068078291361912,0,0.96550164551576267,1,1.6016116716327042,0,281.36369186088189,2.0324001740046853,5.6024799386926238,0.80484489334161746,0.51296505336757015,0.39679963250414446,0.28077615188368615,-391.15622818532148,-4.8573942151314040E-002,94.948053294728936,173.59532355120021,207.74926542650397,260.07742788933410,93.601507969418478,97.769999999999996,4.9053333333333171,0.19271375883286965,5.4623724830509559,7.2176269090304668E-002
20240511100000,426.51097645552682,8.9068456263367395,0.24253992013698500,0,0.80207163382266944,1,0.17613909667745806,2,2.4661868913666445,0,272.59471626267407,2.6082995837181402,5.7988129598348896,0.88455309915777858,0.62341746940047948,0.52354795457172165,0.45533449786873609,-9790.8678158766070,-1.9405838539858656E-003,111.98353436010518,204.74161612672700,245.02342276528859,306.74024976507729,93.618563158927387,97.813333333333333,4.7139999999999986,0.18646052436372884,5.2301939432614972,9.8408233931549835E-002
20240511103000,426.85742625496454,8.8279768575606585,0.19297548311388785,0,9.7522326815063707,1,1.9338715869649741,1,1.3746476959549550,1,276.64842793082630,2.7267170689685871,6.8827285840952603,0.91924584412380961,0.72071949838228644,0.56382987330678191,0.40600945145885331,-570.87839475341468,-3.3282044257791299E-002,96.286488559043946,176.04241008640147,210.67780301451799,263.74360943661554,93.619633821831599,98.213333333333338,4.5286666666666520,0.15038955949184923,5.0314283286201089,7.2387939136176374E-002
20240511110000,426.97716108488356,8.8435650698403894,0.29531777930457537,0,3.9616444472376666,0,0.18012972190806328,2,2.1251813056137632,0,282.60034470773132,2.7321252586464122,6.5453577856045184,1.0614458207293958,0.83097386082899560,0.64055436767286256,0.50220905924722270,-2659.8330715129432,-7.1433054214912004E-003,103.06654941006816,188.43852371157374,225.51278501225289,282.31524651477605,93.630515355236753,98.586666666666673,4.5013333333333208,0.11873744178719903,5.0056874763781138,6.2442478807507980E-002
20240511113000,426.55407580476162,8.9703769779316342,0.19954027481562600,0,8.8630171010920229,0,0.13342596680282651,1,1.4340078604478350,0,279.77224427857630,2.7649872928379442,5.5953599467513815,0.87517131603093046,0.75351232123356315,0.54719042380123972,0.41293593187405503,-660.96798856989824,-2.8745718897989755E-002,99.965524520184857,182.76886119170510,218.72764702798287,273.82105891223330,93.638752312065975,98.796666666666667,4.6756666666666433,0.10233553098006497,5.2093210695055063,7.3245277852163337E-002
20240511120000,426.28708077426006,9.0558476918930211,0.22131711614966071,0,17.837545287534066,0,3.6565572635688177,1,1.1522386026005556,0,282.99827676923371,2.8381767049286935,6.3721157008597560,0.94327095526654536,0.84247553565270028,0.59209542455209618,0.43492941706492794,-383.84490974055444,-4.9499158430529502E-002,97.831015588980549,178.86629809875637,214.05727573424488,267.97430825889211,93.672962466579861,98.743333333333339,4.8243333333333567,0.10798716899599527,5.3791587109035959,9.0989916795626208E-002
20240511123000,425.57069058034762,9.1251025974640179,0.33380884699959745,0,20.896934228871359,0,6.4096831555556255,1,0.24884228539419287,2,286.14931007627268,2.9341630174730384,7.8737652189935101,1.3844448035076291,0.88031691763243214,0.70134951415883917,0.53425623433218739,-607.49671660960121,-3.1275889203216993E-002,100.71797337436665,184.14457767840287,220.37402829966669,275.88213289767265,93.714231559027780,97.959999999999994,5.0539999999999736,0.17813168447322142,5.5850835189819463,9.5856279726081642E-002
20240511130000,424.43420203601386,9.2547526220295726,0.29857725206352459,0,19.792835649625761,0,6.8248563930629560,1,-0.34079094962794959,2,295.25234902598856,3.4984174701574342,7.3472836893152111,1.1635605717552047,1.0554332936403170,0.69416226037680206,0.50558411473433651,-543.68626096311561,-3.4946625221579736E-002,97.167457040766394,177.65310144147642,212.60538919023057,266.15671859291103,93.740287092447929,96.633333333333340,5.4566666666666492,0.30232964325629041,5.8075500081380369,0.12844919114933137
20240511133000,423.28070751124363,9.5422044059311606,0.23025051058345239,0,29.001392391302694,0,5.6757637664636000,0,-0.13613291712665365,2,301.28877668075864,3.4175182676136133,9.1254985351549820,1.4346901665122507,1.0456000759539825,0.69237741441114009,0.44441171702665200,-252.06100408928194,-7.5378577771871666E-002,87.823145181441745,160.56871914721793,192.15974699612534,240.56120073405390,93.760508288194444,95.799999999999997,6.0260000000000105,0.39234572879353435,6.3089611053467820,0.21010291118539565
20240511140000,421.48752724460002,9.5653096776686279,0.70257814895987325,0,221.03594177921590,1,78.474147307916724,1,-7.4299487823522847,1,306.50848272745350,3.1259441907495229,9.1476136197166014,1.5884071069841474,1.3006086265554344,0.83842392778995711,0.77740139367570249,-177.09810879229502,-0.10728516599961925,117.86916864761488,215.50243273107338,257.90137188978179,322.86191391590802,93.810352917534729,90.086666666666673,6.9613333333333003,0.98770095966929494,7.3650831417506879,0.56595783402534039
20240511143000,421.18842192637607,9.6562563489242468,0.77190278734028206,0,205.77176082234377,0,102.92590537641054,0,-3.2529524420488660,0,295.89870072839460,3.3147449425993001,9.1586690653841138,1.7875297596412165,1.1954020714616493,0.89570568948816964,0.81639943046569297,-220.30232551213416,-8.6245117730059953E-002,116.26387349416187,212.56744120793152,254.38893664387552,318.46476178876219,93.792851124565971,84.906666666666666,7.9633333333333098,1.6104171090243597,8.3923764122857847,0.45833819070702730
20240511150000,420.32934244136277,9.5227690594947507,0.62472501919895240,0,152.56192318512112,0,100.23402869995375,0,-1.2300607297690389,0,313.44453664570807,3.2394565226907894,9.1052230559805896,1.6530106097543813,1.3787596144337333,0.80986572404804480,0.73543902121057103,-217.25805474444451,-8.7453604527340759E-002,115.92092024054021,211.94041328098095,253.63854436048277,317.52535969474212,93.819731411443300,79.073666666666668,8.8113333333333230,2.3650219621160500,9.2622229686786568,0.39700933092480351
20240511153000,420.05031120758974,9.2452703838750772,0.68540964461517839,0,207.61102357972911,0,72.853420841634403,0,-5.8808604201613992,1,307.13201125670810,3.1922816779883636,9.2504004574789569,1.5434556346120840,1.3710031181471289,0.91383697281034104,0.77084363799894684,-183.84433232841116,-0.10334830429289092,109.27805425925757,199.79513563375571,239.10374896394779,299.32952061984599,93.830850896701392,74.538333333333327,9.2500000000000000,2.9640730409555034,9.6958785213895453,0.38856631370415995
20240511160000,419.52992234072616,9.1389405752759476,0.53717254903287814,0,161.40106197756276,0,62.712485518804989,0,0.66075398500822025,1,295.96340839814025,3.1012357759623574,9.3011810076292871,1.6873392142233343,1.2883265185763426,0.90022355598961956,0.68350030899653258,-164.87072861190148,-0.11524180283526964,100.45361580931838,183.66124773697365,219.79560580396543,275.15801657116492,93.840671197048607,69.179333333333332,10.190666666666687,3.8218100144040741,10.566609988742414,0.49366803435455736
20240511163000,419.61136182786828,8.5362328455164036,0.53115941487054641,0,84.758873980890854,0,101.17611062025125,0,0.59258916937754014,1,304.74395154330739,3.9523407932442636,9.5760253293886350,1.7274780918806323,1.4650266838007371,0.88269629873947786,0.68013932478272210,-309.31041212637001,-6.1426965453194877E-002,101.64456559116236,185.83868377213577,222.40144061313131,278.42021253263323,93.838348720052096,62.685000000000002,10.644999999999982,4.7696103912882020,10.969471676296735,0.32312642381549023
20240511170000,419.60801055643850,7.8576762702518703,0.57212834896706177,0,89.640854296158736,0,100.31625470532940,1,0.38062258833389478,2,316.95635627315073,3.3495760770475886,11.753998294595259,1.6528391728732228,1.8048177999973869,0.85217555454898097,0.70655311100233986,-327.87764281249457,-5.7948446368652373E-002,107.78231135535951,197.06044056269823,235.83101741475892,295.23244907671489,93.850670829427088,55.268333333333331,11.295333333333360,5.9701700920189618,11.569847681681324,0.40705026300129810
20240511173000,419.89408829714051,7.1732561088675579,0.73822802929795794,0,169.81518649065501,0,91.882657793405500,0,-2.1403933187274475,0,324.02749479261388,4.0603560601875115,10.729950156544174,1.8938674099979447,1.5692136633487286,0.90645798119296694,0.80329452207065888,-254.31301287921630,-7.4711080588801326E-002,113.67804663017446,207.83972499338330,248.73106781063080,311.38178139667946,93.845044912326387,48.626333333333335,11.852333333333320,7.1139892287918638,11.980654509650321,0.40223602436009975
20240511180000,419.71027399475884,6.6923380493228333,1.2189755585209301,0,204.76073124965845,0,124.49135119183120,0,2.0240492357846738,1,315.93533316179747,3.6110726467401539,12.963600215479099,2.0659396144341966,2.1349196286875523,1.1099974905570718,1.0331950328928010,-448.72830979314091,-4.2341879452087172E-002,118.23420892179438,216.16984277589759,258.70009125453242,323.86181578108813,93.842479522089477,43.674666666666667,12.428999999999974,8.1015477371593860,12.554270800659140,0.42513210814629243
20240511183000,419.68908859732420,5.8898283169467147,0.92826269853299515,0,220.50929980385226,0,101.41311607328319,0,0.50778342044329283,1,302.66079793840612,4.4400175253887610,13.204761525078093,2.0844955902555546,2.2192982667784724,1.1359611785552557,0.90228990816747512,-277.48906345817733,-6.8471166982995879E-002,104.14561479690204,190.41139938895984,227.87381331860522,285.27097378451822,93.843401307291671,37.152666666666669,12.947666666666692,9.3523277673370799,12.876469724867036,0.49592269220490354
20240511190000,419.91831235083680,5.4916828824499415,0.97163915684361868,0,204.81274180879501,0,70.415014256844813,0,0.73636937407926184,2,301.48772572533727,4.6801230469842396,13.828096237961800,2.2123025367088713,1.9677433918223142,1.1906523231409587,0.92342222870470958,-320.22530592607905,-5.9333224602761310E-002,102.17559811002845,186.80958058075822,223.56335612254745,279.87479287251216,93.844282486979168,34.131999999999998,13.174333333333323,9.9481537382288945,13.123140389336527,0.48224553968862510
20240511193000,420.12058376498203,4.7333283890813904,1.3109583282192567,0,327.75041691797657,0,141.17575902700594,0,-0.97500327675625376,1,303.66635187106283,5.9822583588881715,14.170365279115096,2.6656049134697768,2.2443900479464993,1.3170527175485633,1.0732717986303271,-314.16284980511676,-6.0478188340175119E-002,106.30168463915290,194.35338270380157,232.59136054988397,291.17678311356002,93.846054384982637,28.585999999999999,13.615000000000009,11.100156533508592,13.388016102260963,0.56227477215719268
20240511200000,420.33585043417145,4.7031455163096991,1.4437693170464831,0,367.63286617409875,0,129.16546603707857,0,-1.9901309487979904,0,297.10695384706878,4.6423932368766518,13.565173855675530,2.4778001449480174,1.8774836238840649,1.2118452148591654,1.1266474606615244,-323.97547715725847,-5.8646414125898036E-002,118.12113509536078,215.96310775812969,258.45268223912456,323.55208905241926,93.844233105902774,28.106666666666666,13.776333333333355,11.292543235045887,13.551764606052018,0.52218661451041559
20240511203000,420.42663181469857,4.7954757088310647,1.3873593466368874,0,391.67609470820406,0,139.03014953393767,1,-0.94799909645574931,2,295.00084247916459,3.7404405106392504,12.051442188455871,2.2421410695444082,2.1116860916540583,1.2673840712656057,1.1054424962939231,-287.22682365768588,-6.6149810655024385E-002,112.24247358133574,205.21503960756533,245.58998975780796,307.44952440842644,93.835202499930546,27.750666666666667,14.271000000000015,11.718563926886663,14.054708335478836,0.56995210306449462
20240511210000,420.53764573848366,4.6390641712185925,1.0887690870466049,0,275.80420676844705,0,141.67541250846381,0,0.50825020193672976,0,306.25311633847554,4.2985931330937772,12.259636500060823,2.1925096528765993,2.1835771737372176,1.2355990427550148,0.97904539237093768,-283.35205261439125,-6.7054393376344307E-002,103.94296752099460,190.04089553756731,227.43041483649239,284.71589150049090,93.831355928155560,27.082000000000001,14.134999999999991,11.723272664695614,13.911836272358869,0.46034635786760819
20240511213000,420.52808381179733,4.5418235592677174,0.54333988004059930,0,152.12839608350595,0,36.739268092103913,0,-0.62667295377445975,1,304.92716933766701,3.6582947013769651,10.319008647723162,1.6057771926726783,1.8671132615686312,1.0063993468439132,0.69147327661998603,-180.99184693530586,-0.10497710433769651,92.738260018834012,169.55511666544680,202.91416966749398,254.02446175238850,93.840999266059029,26.665333333333333,14.048999999999978,11.724698050591055,13.887743414984811,0.38485170917516570
20240511220000,420.51583358308068,4.5777861997813565,0.96355332205337285,0,171.11884318728721,0,77.931557251916686,0,-1.0026530028605196,1,298.77401354880499,4.0290767258368261,11.118509039771002,2.0920267037608702,1.6307133193669161,1.0295796792742034,0.92085771856455345,-380.06558287221435,-4.9991372163756750E-002,114.51989893300797,209.37889949798389,250.57306658198405,313.68774527888797,93.850913541232643,26.798666666666666,14.095333333333315,11.738599731338006,13.935702262030702,0.33122676364264508
20240511223000,420.58283558637788,4.4315490110623479,0.84295899506417982,0,114.62783681008463,0,49.508253592526081,0,0.56909247739665714,1,295.37525082328654,4.4753722184326801,10.076102227138248,1.8092851196550730,1.6253578174804524,1.1053145269900180,0.86109659288849638,-463.92393284412748,-4.0954989934489448E-002,102.54339552294891,187.48203155454524,224.36810819179539,280.88224696785608,93.855040923611114,26.132333333333335,13.983666666666693,11.759959631980541,13.836030213250069,0.23406447849205667